Dewa Poker | Dominobet | Poker Boya | Bandar Blackjack | Bandar Ceme

Jackpot

Texas Poker Multi Jackpot System

Kini Telah hadir Jackpot SUPER ROYAL FLUSH

Kini Telah hadir Jackpot 2000 (khusus table VIP keatas).

Ikutilah global jackpot yang tersedia di system kami, dengan system jackpot terbaru dan pertama di indonesia, anda dapat membeli jackpot dengan harga 100 rupiah saja dan menangkan hadiahnya hingga puluhan juta rupiah.

Jackpot bukanlah suatu keharusan untuk dibeli, namun kami memberikan suatu fitur tambahan untuk member tercinta dari www.poker555.net.

Terdapat tiga pilihan harga jackpot yang bisa anda beli yaitu :100,500,1000 dan 2000(khusus table VIP Keatas) rupiah.

Hadiah dari Multi jackpot system www.poker555.net

  1. full house x 10 harga jackpot yang anda beli.
      (contoh:anda membeli 1000 maka:1000 X10 = 10.000)
  2. four of kind x 250 harga jackpot yang anda beli
      (contoh:anda membeli 1000 maka:1000 X250 = 250.000)
  3. Straight flush x 1200
      (contoh:anda membeli 1000 maka:1000 X1200 = 1.200.000)
  4. Royal flush x 10000 harga jackpot yang anda beli
      (contoh:anda membeli 1000 maka:1000 X10000 = 10.000.000)
  5. SUPER ROYAL FLUSH x 30000 harga jackpot yang anda beli
      (contoh:anda membeli 1000 maka:1000 X30000 = 30.000.000)

Kondisi kartu

  1. full house adalah kondisi kartu dimana kartu anda dan kartu tengah dengan total 7 kartu bisa mendapatkan nilai 5 kartu dengan kombinasi 1 tris(three of kind) dan 1 pair, contoh 3 kartu 10 dan 2 kartu 5
  2. Four of kind adalah kondisi kartu dimana kartu anda dan kartu tengah dengan total 7 kartu bisa mendapatkan nilai 5 kartu dengan kombinasi 4 kartu yang sama jumlah dan 1 kartu apapun juga contoh anda mendapatkan 4 buah kartu angka 3 dan 1 kartu apapun.
  3. Staright flush adalah kondisi kartu dimana kartu anda dan kartu tengah dengan total 7 kartu bisa mendapatkan nilai 5 kartu dengan kombinasi seri / staright dengan kembang yang sama contoh : urutan kartu dari angka 5, 6, 7, 8 , 9 10 dengan kembang yg sama misalnya as hati
  4. Royal flush adalah kondisi kartu dimana kartu anda dan kartu tengah dengan total 7 kartu bisa mendapatkan nilai 5 kartu dengan kombinasi seri / staright dengan kembang yang sama tetapi kartu tersebut haruslah dimulai dari 10. contoh 10, Queen, Jack, King dan aces dengan kembang yang sama
  5. Super Royal flush adalah kondisi kartu dimana Kedua kartu anda digabung dengan 3 kartu pertama meja haruslah royal flush. contoh kartu anda 10,Queen kembang sama dan 3 kartu pertama meja adalah Jack, King dan aces dengan kembang yang sama

Demikian adalah penjelasan dari Multi Jackpot www.poker555.net terima kasih dan selamat bermain salam hoki dari kami

Texas Poker Jackpot Winner

TOP SUPER ROYAL FLUSH
No.TanggalNamaPriceWin
123/04 11:37ASBINTANGSuper Royal flush15,000,000
223/04 04:48GEHUCHENGSuper Royal flush15,000,000
323/04 00:42C76KO7XVWPSuper Royal flush6,000,000
422/04 23:08EB89FT040OSuper Royal flush15,000,000
522/04 16:18XDEJAVUXSuper Royal flush3,000,000
TOP ROYAL FLUSH
No.TanggalNamaPriceWin
123/04 12:02MASYOOANN3Royal flush2,000,000
223/04 11:43RENJAKAIRoyal flush20,000,000
323/04 11:08NISSA19Royal flush10,000,000
423/04 11:02VSOP88Royal flush10,000,000
523/04 10:59NENEGSIH1Royal flush2,000,000
TOP STRAIGHT FLUSH
No.TanggalNamaPriceWin
123/04 12:17SEVANO__Straight Flush600,000
223/04 12:15NANAT33Straight Flush120,000
323/04 12:04VENOM008Straight Flush600,000
423/04 12:03MAY1010Straight Flush1,200,000
523/04 12:02CEPET6969Straight Flush120,000
LATEST JACKPOT
No.TanggalNamaPriceWin
123/04 12:18BURAYAK14Full House5,000
223/04 12:18FRICO999Full House5,000
323/04 12:18HOANGANHTHOM78Full House20,000
423/04 12:18HATUQVE5PZFull House2,000
523/04 12:17BALUTA55Full House1,000
623/04 12:17LESLEY008Full House20,000
723/04 12:17LNCS083BYMFull House1,000
823/04 12:17TENGIK8Full House2,000
923/04 12:17TEMPUR123Full House2,000
1023/04 12:17RH5Full House5,000
1123/04 12:17YUYUN018Full House1,000
1223/04 12:17POOL22Full House2,000
1323/04 12:17OCT33Full House5,000
1423/04 12:17INDO7777Full House10,000
1523/04 12:17ASCAER_99Full House5,000
1623/04 12:17BRUSTIRISFull House500
1723/04 12:17DEBLONG127Full House10,000
1823/04 12:17LIMOKARFull House1,000
1923/04 12:17SOLU22Full House10,000
2023/04 12:17T0NK0S0NKFull House2,000
2123/04 12:17AMPAOBOSSFull House5,000
2223/04 12:17DINNNNNNFull House2,000
2323/04 12:17DJYB4O429SFull House2,000
2423/04 12:17RKA9QQZJCCFour Of A Kind125,000
2523/04 12:17AASS29Full House2,000
2623/04 12:17N3R1M0_XFull House2,000
2723/04 12:17IWAN_1204Full House2,000
2823/04 12:17JUWIASFull House2,000
2923/04 12:17HERAN899Full House2,000
3023/04 12:17KARAWAIMEFull House10,000
3123/04 12:17BNYTRUFull House5,000
3223/04 12:17BUTONG66Full House2,000
3323/04 12:17BLOKBEASFull House2,000
3423/04 12:17C3MPLUK22Full House2,000
3523/04 12:17RIANBGR99Full House5,000
3623/04 12:17TUYHULFour Of A Kind50,000
3723/04 12:17REGON07Full House20,000
3823/04 12:17JONGOS020Full House10,000
3923/04 12:17SEVANO__Straight Flush600,000
4023/04 12:17STANDAR56Full House20,000
4123/04 12:17LILLDAM77Full House5,000
4223/04 12:17AGFAEFull House20,000
4323/04 12:17CERA3HFull House2,000
4423/04 12:17BL4E5JEM88Full House5,000
4523/04 12:17CYDUK92Full House1,000
4623/04 12:17INSEGT99Full House10,000
4723/04 12:17EJ5XGQQUZPFull House5,000
4823/04 12:17OPAHAMOYFull House2,000
4923/04 12:17DONALKUFull House5,000
5023/04 12:17DWBTSTEV53Four Of A Kind125,000

Domino Multi Jackpot System

Ikutilah global jackpot yang tersedia di system kami, dengan system jackpot terbaru dan pertama di indonesia, anda dapat membeli jackpot dengan harga 100 rupiah saja dan menangkan hadiahnya hingga puluhan juta rupiah.

Jackpot bukanlah suatu keharusan untuk dibeli, namun kami memberikan suatu fitur tambahan untuk member tercinta dari www.poker555.net.

Terdapat tiga pilihan harga jackpot yang bisa anda beli yaitu :100,500 dan 1000 rupiah.

Hadiah dari Multi jackpot system www.poker555.net

  1. Murni Kecil x 50 harga jackpot yang anda beli.
      (contoh:anda membeli 1000 maka:1000 X 50 = 50.000)
  2. Murni Besar x 50 harga jackpot yang anda beli
      (contoh:anda membeli 1000 maka:1000 X 50 = 50.000)
  3. BALAK x 100 harga jackpot yang anda beli
      (contoh:anda membeli 1000 maka:1000 X 100 = 100.000)
  4. ENAM DEWA x 6666 harga jackpot yang anda beli
      (contoh:anda membeli 1000 maka:1000 X 6666 = 6.666.000)

Demikian adalah penjelasan dari Multi Jackpot www.poker555.net terima kasih dan selamat bermain salam hoki dari kami

Domino Jackpot Winner

TOP ENAM DEWA
No.TanggalNamaPriceWin
123/04 12:12TOLET13murni enam3,333,000
223/04 11:39MAMI60murni enam666,600
323/04 08:58THEMITmurni enam6,666,000
423/04 05:45SJK09A1K1Kmurni enam666,600
523/04 03:30MITU23murni enam666,600
TOP BALAK
No.TanggalNamaPriceWin
123/04 12:15C899balak100,000
223/04 12:12CICHO02balak50,000
323/04 12:12POOR29balak100,000
423/04 12:08HN9WC4DS4Zbalak10,000
523/04 12:07PARJAN99balak50,000
LATEST JACKPOT
No.TanggalNamaPriceWin
123/04 12:17BERKATYKINmurni kecil50,000
223/04 12:15MAMPIR32murni besar5,000
323/04 12:15SAMAD45murni besar25,000
423/04 12:15C899balak100,000
523/04 12:15HENGKI005lucky9910,000
623/04 12:14SOQBImurni besar50,000
723/04 12:13IW4NK1N6murni besar50,000
823/04 12:13RATU2124murni besar25,000
923/04 12:12RIZKIKA28murni kecil25,000
1023/04 12:12TOLET13murni enam3,333,000
1123/04 12:12CICHO02balak50,000
1223/04 12:12JALUK86murni besar50,000
1323/04 12:12POOR29balak100,000
1423/04 12:11JEBUL707murni kecil50,000
1523/04 12:11IKOANGGAmurni kecil50,000
1623/04 12:11LEQOWO72murni kecil25,000
1723/04 12:10WIRA_763murni kecil50,000
1823/04 12:09LABU34murni besar50,000
1923/04 12:08HN9WC4DS4Zbalak10,000
2023/04 12:07KANZAALEmurni kecil50,000
2123/04 12:07PARJAN99balak50,000
2223/04 12:07WISESA82lucky9950,000
2323/04 12:07SAWITTO23balak100,000
2423/04 12:06IONDCJBWRQmurni kecil5,000
2523/04 12:06LEQOWO72murni kecil25,000
2623/04 12:05KESY44balak100,000
2723/04 12:04GEPENKOBLObalak50,000
2823/04 12:04ELORAmurni kecil50,000
2923/04 12:03SETRUMIN10murni kecil5,000
3023/04 12:01GOGO05murni besar25,000
3123/04 12:00MESSILUCKYmurni kecil50,000
3223/04 12:00POOR29murni kecil50,000
3323/04 12:00BGARDDKD99murni kecil5,000
3423/04 12:00EETDEHmurni besar25,000
3523/04 11:59ANDOT19murni kecil5,000
3623/04 11:59S2BC3DH72Rmurni besar50,000
3723/04 11:57TONHO003balak100,000
3823/04 11:57BLACKZCXmurni kecil50,000
3923/04 11:56EDI2901balak10,000
4023/04 11:56G6LFCCOAITmurni kecil50,000
4123/04 11:56LUKEHmurni kecil25,000
4223/04 11:56BORETNGAmurni besar25,000
4323/04 11:55B5A138F9murni besar5,000
4423/04 11:55DAVAZKAmurni besar25,000
4523/04 11:54JIPKImurni kecil5,000
4623/04 11:54GARASIN3Tmurni kecil50,000
4723/04 11:53CIPEH09murni besar50,000
4823/04 11:53GOLLEM98murni kecil25,000
4923/04 11:53SALIMAH10murni besar50,000
5023/04 11:52HIUWHITEmurni besar5,000

Ceme Multi Jackpot System

Jackpot dilihat dari gabungan kartu pemain dengan kartu bandar. Bandar harus membeli jackpot sebanyak jumlah player yang sedang duduk. Sebagai contoh bila terdapat 3 pemain duduk bermain, dan bandar memutuskan untuk membeli jackpot Rp 1.000, maka pada periode tersebut bandar akan membeli jackpot sebanyak 3xRp1.000 = Rp3.000.

Jackpot bukanlah suatu keharusan untuk dibeli, namun kami memberikan suatu fitur tambahan untuk member tercinta dari www.poker555.net.

Terdapat tiga pilihan harga jackpot yang bisa anda beli yaitu :100,500 dan 1000 rupiah.

Hadiah dari Multi jackpot system www.poker555.net

  1. Murni Kecil x 50 harga jackpot yang anda beli.
      (contoh:anda membeli 1000 maka:1000 X 50 = 50.000)
  2. Murni Besar x 50 harga jackpot yang anda beli
      (contoh:anda membeli 1000 maka:1000 X 50 = 50.000)
  3. BALAK x 200 harga jackpot yang anda beli
      (contoh:anda membeli 1000 maka:1000 X 200 = 200.000)
  4. ENAM DEWA x 6666 harga jackpot yang anda beli
      (contoh:anda membeli 1000 maka:1000 X 6666 = 6.666.000)

Demikian adalah penjelasan dari Multi Jackpot www.poker555.net terima kasih dan selamat bermain salam hoki dari kami

Ceme Jackpot Winner

TOP ENAM DEWA
No.TanggalNamaPriceWin
123/04 12:12CUPU012murni enam6,666,000
223/04 12:12URI303murni enam6,666,000
323/04 11:21TIGAMUSANGmurni enam6,666,000
423/04 11:21GAS4KBOZmurni enam3,333,000
523/04 11:14GENSUZ11murni enam6,666,000
TOP BALAK
No.TanggalNamaPriceWin
123/04 12:17SITISAN09balak200,000
223/04 12:17MINANG95balak100,000
323/04 12:17RAJAGASS83balak20,000
423/04 12:16JWOOORPA9Ybalak100,000
523/04 12:16COROG237balak200,000
LATEST JACKPOT
No.TanggalNamaPriceWin
123/04 12:18MUNIRMUNIRmurni besar25,000
223/04 12:18WALKINGTHEmurni kecil5,000
323/04 12:18BOROZZ44murni kecil5,000
423/04 12:17HIDAYATR77murni besar50,000
523/04 12:17SITISAN09balak200,000
623/04 12:17MINANG95balak100,000
723/04 12:17CAGAKRADIOmurni besar50,000
823/04 12:17HAPPY688murni besar50,000
923/04 12:17YOUKNOWLMmurni kecil50,000
1023/04 12:17ABIBREJECTmurni kecil5,000
1123/04 12:17ABG17PEAmurni besar5,000
1223/04 12:17SDF123murni kecil50,000
1323/04 12:17RAJAGASS83balak20,000
1423/04 12:16JWOOORPA9Ybalak100,000
1523/04 12:16C578Mmurni besar50,000
1623/04 12:16E31DF896murni besar5,000
1723/04 12:16COROG237balak200,000
1823/04 12:16ERWANTO22balak200,000
1923/04 12:16DOD789murni kecil25,000
2023/04 12:16BOSKLENGGmurni besar25,000
2123/04 12:16DOLOPOKmurni besar25,000
2223/04 12:16OENAM45balak200,000
2323/04 12:16KAFE12balak100,000
2423/04 12:16MARLEY11murni besar50,000
2523/04 12:16NAGILA00murni kecil50,000
2623/04 12:16ARIES14murni kecil25,000
2723/04 12:16YKB881558murni kecil5,000
2823/04 12:15IAP06murni kecil50,000
2923/04 12:15RAFAZIQQ99murni kecil50,000
3023/04 12:15JIBRANCAESmurni kecil50,000
3123/04 12:15JIBRANCAESmurni kecil50,000
3223/04 12:15RANGGA8777murni kecil5,000
3323/04 12:15OKKKIS05murni kecil50,000
3423/04 12:15FOCOKmurni kecil25,000
3523/04 12:15ELB1N0murni besar5,000
3623/04 12:15M3NAN9GGmurni besar50,000
3723/04 12:15KAMAR44murni kecil25,000
3823/04 12:15SYARUM10murni kecil5,000
3923/04 12:15FAHMIQIUmurni kecil50,000
4023/04 12:14ASRI4SR1murni kecil5,000
4123/04 12:14RAFFIRRbalak200,000
4223/04 12:14SIMOREJO99balak20,000
4323/04 12:14T4DSTEVENJAAmurni kecil50,000
4423/04 12:14HENDRICK07murni besar50,000
4523/04 12:14WINNERLOPmurni kecil50,000
4623/04 12:14AKNADAbalak200,000
4723/04 12:14C1CAK_EWmurni kecil5,000
4823/04 12:13JADULL85murni besar50,000
4923/04 12:13BORJU774murni besar50,000
5023/04 12:13HARIS990murni kecil50,000